POLYITAN-2-SAU (42732 NORAD) Tracking and Keplerian Element Data

This shows tracking and keplerian element data for the satellite.

Feedback or suggestion? Click here.




ElementValue
Catalog42732
NamePOLYITAN-2-SAU
Epoch Orbit7539
Epoch Day263.28268804
Epoch Year2018
RAAN226.6925
Inclination51.6318
Eccentricity0.0004274
Argument of Perigee151.8735
Mean Anonmoly208.2497
Mean Motion15.7788667
Decay Rate0.00036424
L11 42732U 98067MM 18263.28268804 .00036424 00000-0 21388-3 0 9990
L22 42732 51.6318 226.6925 0004274 151.8735 208.2497 15.77886670 75394

Live tracking and technical data element details for POLYITAN-2-SAU (NORAD 42732). POLYITAN-2-SAU can be tracked NOW for your location showing map with azimuth and elevation plus other details from your city location.

Track the satellite on the map from your city or location and see movement details for azimuth, elevation, latitude, longitude, range, height, and movement on the map or in text.







IsCatalogInMostPopularTable: catalog: 42732, numindb: 125
Update: records affected: 1



GetName: 42732 POLYITAN-2-SAU

Hit Count: updated at: Sat, 22 Sep 2018 15:21:25 GMT